NEONSAT-1

导读 | 星芒AI

NEONSAT-1 是一颗由印度尼西亚开发的地球观测卫星,旨在支持环境监测、农业管理和灾害预警。该卫星由印尼国家航空航天局(LAPAN)主导研制,并于2023年发射升空。搭载高分辨率光学传感器,NEONSAT-1 能够提供清晰的地球表面图像,用于土地利用分析、森林监测和水资源管理。作为印尼自主卫星计划的一部分,该卫星提升了国家在遥感技术和空间应用领域的自主能力。

基本信息
目录编号:
59587
目录名称:
NEONSAT-1
国际标识:
2024-077A
轨道中心:
EARTH
卫星名称:
NEONSAT-1
卫星全名:
--
卫星状态:
在轨 (已飞行679 天)
发射日期:
2024-04-23 UTC
国别 :
韩国 (KR)
星等 :
--
轨道信息
数据来源 国际轨道数据
星历时间: 2026-03-03T19:37:33+0800
11小时前
查看轨道信息
半长轴: 6837.04km
偏心率: 0.0010302
轨道倾角: 97.354°
近地点辐角 56.614°
升交点赤经 146.496°
平近点角 303.609°
近地点: 451.859km
远地点: 465.947km
周期: 93.770分钟
每日圈数: 15.356798
详细信息
使用方式:
暂无
2D轨道图
3D轨道图
轨道高度分析图
轨道倾角分析图
轨道综合分析图
查看轨道综合分析图